Terug naar catalogus

STARLINK-35550

ActiefCommunicatieVLEO
NORAD 66267·PAYLOAD·🇺🇸 United States

Gelanceerd Oct 31, 2025 vanaf Vandenberg Space Force Base

Loading…

Volgende Passages (komende 24 uur)

TLE

VersSource: CelesTrak SupGP

Epoch: Sep 15, 2026, 02:56 UTC

1 66267C 25247C   26258.12270833  .00026963  00000+0  79644-3 0  2582
2 66267  53.1606  26.9877 0001192  75.7819 166.6410 15.34384181    12

Volg STARLINK-35550 in realtime met AllMySat

Download on the App Store